STARLINK-3093 (49141 NORAD) Tracking and Keplerian Element Data

This shows tracking and keplerian element data for the satellite.

Feedback or suggestion? Click here.




ElementValue
Catalog49141
NameSTARLINK-3093
Epoch Orbit619
Epoch Day288.25002315
Epoch Year2021
RAAN39.3844
Inclination70
Eccentricity0.0003576
Argument of Perigee281.1453
Mean Anonmoly238.9235
Mean Motion15.69750582
Decay Rate-6.695E-05
L11 49141U 21082M 21288.25002315 -.00006695 00000-0 -54340-4 0 9999
L22 49141 70.0000 39.3844 0003576 281.1453 238.9235 15.69750582 6190

Live tracking and technical data element details for STARLINK-3093 (NORAD 49141). STARLINK-3093 can be tracked NOW for your location showing map with azimuth and elevation plus other details from your city location.

Track the satellite on the map from your city or location and see movement details for azimuth, elevation, latitude, longitude, range, height, and movement on the map or in text.







IsCatalogInMostPopularTable: catalog: 49141, numindb: 5
Update: records affected: 1



GetName: 49141 STARLINK-3093

Hit Count: updated at: Sun, 17 Oct 2021 09:55:41 GMT